Wind_Speed
29 30 30 30 31 32 32 33 34 35 35 36 36 36 36 36 37 37 37 37 37 37 37 38 38 39 39 40 40 40 40 40 40 41 41 41 42 42 42 41 41 41 41 41
27 28 29 29 30 30 31 32 33 34 34 35 36 36 35 35 36 36 36 37 37 37 37 37 38 39 40 40 40 40 41 41 41 41 41 41 41 42 43 43 42 42 42 42
26 26 27 27 28 29 30 31 32 33 34 35 36 36 35 34 35 35 36 36 37 37 38 38 39 39 40 41 41 40 41 41 41 41 41 42 42 43 43 43 44 43 43 43
24 25 26 27 28 28 29 29 30 31 33 33 34 36 33 34 34 34 35 36 36 37 37 38 38 39 40 40 40 40 41 41 41 42 42 43 43 43 43 43 44 44 45 45
24 24 26 27 28 28 29 29 30 31 32 33 33 36 32 33 33 33 34 35 36 36 37 38 38 38 39 40 40 40 41 41 41 42 43 44 44 43 43 44 43 45 46 47
23 23 25 26 26 27 28 29 30 31 32 34 32 34 33 32 32 32 33 33 34 35 36 37 37 38 38 40 41 41 41 42 42 42 42 42 44 44 44 44 45 45 46 46
23 23 23 25 26 27 28 28 30 31 32 33 32 33 33 31 31 32 32 33 33 34 35 37 37 37 37 39 40 41 42 42 42 42 42 42 42 44 45 45 45 45 45 45
23 23 23 24 25 27 27 28 29 30 31 32 32 33 32 31 31 32 32 33 33 35 36 36 36 36 37 38 39 39 41 41 41 42 42 41 42 43 44 44 44 43 43 43
24 24 23 23 24 26 26 27 28 29 30 31 32 32 32 31 31 32 32 33 33 34 35 36 36 36 36 37 38 39 39 40 40 41 42 41 40 40 41 41 41 41 41 42
24 24 24 24 25 25 27 27 28 28 30 31 32 32 32 31 32 32 32 33 33 34 34 34 35 35 35 36 37 38 38 38 39 40 40 40 40 40 40 40 40 40 41 41
23 24 24 25 24 24 26 27 28 29 30 31 31 30 30 31 31 32 32 33 33 33 32 33 33 34 34 34 35 36 36 37 38 38 38 38 38 39 39 39 39 40 40 41
24 25 25 25 25 25 26 27 27 29 29 31 31 30 29 30 31 32 32 33 33 32 32 32 32 32 33 33 34 35 35 35 36 36 36 36 36 37 37 38 38 39 39 40
25 26 26 26 26 26 27 27 28 29 31 31 31 30 29 29 29 30 31 31 32 32 32 32 32 32 33 33 33 33 34 35 35 36 36 36 36 36 37 38 38 38 39 40
27 27 27 27 26 27 28 28 29 30 31 31 31 30 29 28 29 30 29 30 30 30 31 31 31 31 32 33 33 33 33 34 35 35 36 36 36 36 36 37 38 38 38 39
27 28 28 28 27 28 29 29 29 30 31 32 30 29 28 28 29 29 29 29 29 29 30 30 31 31 32 32 33 33 33 33 34 34 34 35 35 36 36 36 37 37 37 38
27 28 29 29 28 29 29 28 29 30 31 31 30 29 28 30 30 29 29 29 30 30 30 30 31 31 31 31 32 32 32 32 33 33 33 34 35 35 36 36 36 36 36 36
27 28 28 28 27 29 29 27 28 30 29 29 28 27 27 29 30 30 30 30 30 30 31 31 31 31 31 31 31 31 31 32 32 32 33 34 34 35 35 35 35 35 36 36
27 27 27 27 26 28 27 26 27 28 27 27 27 27 27 28 28 29 29 30 30 30 31 31 31 31 31 31 31 31 31 31 32 32 33 33 34 34 34 34 34 34 34 34
26 26 26 27 27 26 25 25 26 26 26 26 27 27 27 28 28 28 29 30 30 30 31 30 30 31 31 31 31 31 31 31 31 32 32 33 33 32 32 32 33 33 33 32
25 25 25 25 27 27 25 24 24 25 25 24 25 26 26 26 27 27 28 30 30 30 30 31 30 31 31 31 31 32 31 31 31 31 31 31 32 32 32 31 31 31 31 30
23 23 23 24 25 25 25 23 23 23 23 23 23 24 25 25 25 26 27 28 29 30 30 31 31 31 32 32 32 31 31 30 30 30 30 30 30 30 30 30 29 29 29 29
22 23 23 24 24 24 23 24 23 23 22 23 23 23 24 25 25 26 27 28 28 29 30 30 31 31 31 31 31 30 30 30 30 29 29 28 28 28 28 28 27 27 26 27
23 23 24 24 24 23 23 24 23 23 23 23 23 24 24 25 26 26 27 27 27 27 28 28 28 28 28 28 28 28 28 28 28 28 27 27 26 26 26 25 25 25 25 25
23 23 23 23 23 23 23 23 23 23 23 23 24 24 25 25 25 25 26 26 25 25 25 25 25 25 25 25 25 26 26 26 26 25 25 24 24 24 23 24 24 24 24 24
24 23 23 24 23 23 22 22 22 22 23 24 24 24 24 24 24 24 24 24 24 24 24 24 24 24 24 24 24 24 23 23 23 23 23 22 22 22 23 23 22 22 23 23
23 23 24 24 24 24 24 23 23 23 23 23 24 24 23 23 23 24 24 24 24 23 23 23 22 22 22 22 22 22 22 22 21 21 21 21 21 20 20 21 21 21 21 22
Wind_Direction
260 257 256 257 258 259 260 260 258 257 258 258 259 259 258 259 258 259 259 259 259 258 258 259 258 258 257 257 258 258 258 258 258 259 260 262 263 264 266 266 267 267 266 265
261 258 257 258 260 260 260 260 259 258 258 260 260 259 258 259 259 259 259 259 259 260 259 259 259 260 259 258 258 259 259 259 260 260 260 261 262 264 265 266 266 267 268 267
262 260 258 258 260 260 259 260 260 260 261 261 262 260 259 259 260 259 259 260 261 261 261 261 261 261 261 259 258 258 259 259 259 260 261 262 262 264 266 266 266 266 267 267
262 260 259 260 262 263 262 260 260 261 262 263 264 264 260 261 260 260 260 261 262 262 262 263 263 263 262 262 259 260 261 260 260 260 261 262 262 263 265 267 267 267 267 267
263 262 262 262 263 264 264 262 261 262 263 264 264 266 263 262 261 262 262 263 263 263 263 263 263 264 264 263 261 262 263 264 263 263 263 263 263 264 266 266 267 267 268 268
265 265 265 265 264 264 264 263 263 263 264 264 264 266 264 262 263 264 264 264 264 264 264 264 264 265 264 263 263 264 265 266 266 265 264 264 264 265 266 266 266 267 267 267
265 267 267 266 264 263 262 262 262 264 265 266 266 266 265 264 264 265 266 266 265 264 264 265 266 265 265 264 264 265 265 266 266 266 265 265 266 266 266 266 267 267 267 267
267 267 268 267 265 264 263 262 263 266 268 269 268 269 267 266 266 266 266 266 266 265 264 265 266 267 266 264 264 264 265 265 266 267 267 267 268 268 267 267 267 267 267 267
269 268 268 269 267 264 264 264 264 265 266 268 269 270 269 267 268 268 268 267 266 266 265 265 266 268 267 266 265 264 265 266 267 268 268 267 267 268 267 266 265 265 266 266
271 272 271 270 269 266 265 265 265 265 266 268 270 271 272 269 270 271 271 270 269 269 267 266 267 269 270 268 267 267 267 268 268 268 268 268 266 266 266 266 266 265 266 266
272 273 273 271 269 269 266 264 264 265 266 269 272 273 273 274 274 274 273 273 272 271 268 267 269 271 271 270 270 270 269 268 268 268 268 269 268 267 267 267 267 267 267 268
272 273 274 273 270 270 268 267 266 265 266 267 269 272 274 274 274 274 273 273 273 271 268 268 269 271 271 272 271 270 269 269 268 268 268 269 269 268 267 266 267 267 268 269
272 273 274 273 272 271 270 270 268 267 267 267 268 272 275 274 274 274 274 274 272 271 269 269 269 270 271 271 271 270 269 269 268 268 268 268 268 268 268 267 267 268 269 270
272 273 274 274 276 275 273 272 271 269 269 269 269 271 272 272 271 272 273 273 273 272 271 271 271 272 273 272 271 270 269 269 269 268 268 268 268 269 270 269 268 268 269 270
274 274 274 273 273 274 273 273 272 270 269 270 272 271 271 271 270 270 270 271 272 272 272 272 273 273 274 274 273 271 270 269 269 269 268 268 268 269 270 270 270 270 271 272
275 275 275 273 272 272 272 271 272 271 271 272 272 272 272 270 270 269 269 270 271 272 272 272 273 274 275 275 274 272 271 270 270 269 268 268 268 269 271 272 272 272 272 273
275 274 275 274 273 273 274 274 273 273 273 271 271 272 271 271 271 269 269 270 271 272 272 273 273 274 274 275 275 273 272 271 270 270 269 268 268 270 270 271 272 273 273 273
276 274 275 275 275 276 280 276 274 274 273 272 271 271 272 272 272 271 271 270 271 273 273 274 274 275 275 275 274 273 272 272 271 270 269 268 269 269 270 269 271 272 273 274
275 273 274 275 277 280 280 280 279 277 274 273 272 272 272 272 272 274 273 273 273 274 274 274 275 275 276 275 275 274 273 273 273 271 269 269 269 269 269 269 270 271 272 273
273 271 271 275 277 280 282 282 282 279 276 276 274 272 272 272 272 273 275 276 276 277 276 275 276 276 277 276 275 275 273 273 273 271 270 269 269 269 270 269 270 270 272 273
273 272 272 275 278 281 283 283 282 280 280 277 276 274 273 274 276 276 277 278 278 278 277 277 278 279 278 277 277 275 274 273 272 271 270 270 270 270 269 269 270 270 271 272
273 274 274 275 278 283 284 283 281 280 278 278 280 279 277 278 279 280 281 282 280 279 279 280 280 280 280 278 276 274 273 272 271 270 270 270 269 269 269 269 269 269 270 272
273 276 276 276 278 283 284 283 281 279 278 279 282 282 282 281 282 284 285 286 284 281 281 282 282 282 281 280 278 275 273 272 269 268 269 268 268 268 269 268 268 270 271 271
272 274 274 275 277 280 283 283 282 281 280 280 281 283 283 283 284 284 286 287 287 284 283 284 284 283 282 281 280 278 275 271 267 265 265 266 266 267 268 267 268 269 270 271
271 272 272 273 275 277 278 280 281 282 282 282 282 283 285 284 284 285 286 287 286 285 285 285 284 284 283 282 281 280 276 271 267 265 265 266 266 267 267 268 269 270 271 272
273 272 273 275 276 276 278 279 279 280 281 281 283 284 284 285 285 286 285 285 284 284 285 286 287 286 285 283 281 279 276 273 268 264 264 265 266 266 266 267 269 271 272 274
Height
5675 5677 5679 5682 5683 5685 5686 5687 5689 5691 5692 5693 5695 5697 5700 5701 5703 5705 5706 5708 5709 5711 5713 5714 5715 5717 5718 5720 5722 5723 5725 5726 5728 5729 5731 5731 5732 5732 5733 5734 5735 5735 5736 5736
5668 5670 5673 5674 5675 5676 5678 5679 5681 5683 5684 5685 5686 5688 5691 5693 5694 5696 5698 5699 5700 5702 5704 5705 5706 5707 5709 5711 5712 5714 5715 5717 5719 5720 5721 5722 5723 5723 5724 5725 5725 5726 5726 5726
5662 5665 5666 5667 5668 5669 5670 5672 5674 5675 5675 5676 5677 5680 5683 5685 5686 5688 5689 5690 5692 5693 5695 5696 5697 5698 5699 5701 5703 5704 5706 5707 5709 5710 5711 5713 5713 5714 5714 5715 5715 5716 5716 5716
5655 5658 5658 5659 5661 5662 5663 5665 5666 5666 5667 5668 5670 5670 5676 5677 5678 5679 5681 5682 5683 5685 5686 5687 5688 5689 5690 5691 5693 5694 5695 5697 5699 5700 5701 5702 5703 5704 5704 5704 5705 5705 5705 5706
5650 5651 5652 5653 5655 5655 5656 5658 5658 5659 5659 5660 5662 5661 5667 5668 5670 5672 5673 5674 5674 5675 5677 5678 5679 5680 5681 5682 5683 5684 5685 5686 5688 5689 5690 5691 5692 5693 5693 5694 5694 5694 5695 5695
5644 5645 5646 5647 5648 5648 5649 5650 5651 5651 5650 5652 5655 5654 5657 5660 5662 5663 5664 5665 5666 5666 5667 5668 5669 5670 5671 5672 5673 5675 5676 5676 5677 5678 5679 5680 5681 5681 5682 5682 5683 5683 5683 5684
5638 5639 5639 5640 5641 5642 5642 5643 5644 5643 5643 5645 5648 5646 5650 5653 5654 5655 5656 5656 5657 5658 5658 5659 5660 5661 5662 5663 5663 5664 5666 5666 5667 5667 5668 5668 5669 5669 5670 5671 5671 5671 5672 5672
5631 5633 5633 5634 5635 5635 5636 5637 5638 5638 5637 5638 5639 5639 5643 5645 5646 5646 5647 5648 5648 5649 5649 5650 5650 5651 5652 5653 5653 5654 5655 5656 5656 5656 5657 5657 5657 5658 5659 5659 5659 5660 5660 5660
5625 5627 5628 5628 5628 5629 5629 5630 5631 5631 5630 5630 5631 5633 5635 5637 5638 5638 5638 5639 5639 5640 5641 5641 5641 5642 5642 5643 5643 5644 5645 5645 5646 5646 5646 5646 5646 5647 5648 5648 5648 5649 5649 5650
5619 5620 5621 5621 5622 5622 5623 5623 5624 5623 5623 5623 5625 5626 5628 5629 5629 5630 5630 5630 5631 5631 5632 5632 5632 5632 5633 5633 5633 5634 5634 5635 5635 5635 5635 5635 5636 5636 5637 5637 5638 5638 5639 5639
5614 5614 5615 5615 5616 5616 5617 5617 5617 5617 5617 5617 5617 5622 5620 5621 5621 5621 5622 5622 5622 5623 5623 5623 5623 5623 5623 5623 5623 5624 5624 5625 5625 5625 5625 5625 5625 5626 5626 5627 5627 5628 5628 5629
5608 5608 5608 5609 5609 5609 5610 5610 5611 5611 5611 5610 5610 5615 5613 5613 5613 5613 5613 5613 5614 5614 5614 5615 5615 5615 5614 5614 5614 5614 5615 5615 5615 5615 5615 5615 5615 5615 5616 5616 5617 5617 5618 5618
5601 5602 5602 5602 5604 5604 5603 5603 5603 5603 5603 5602 5603 5607 5605 5606 5605 5605 5605 5605 5605 5606 5606 5606 5606 5606 5606 5605 5605 5605 5605 5605 5605 5605 5605 5605 5605 5606 5606 5606 5607 5607 5607 5607
5595 5595 5596 5596 5596 5595 5596 5596 5595 5595 5594 5595 5596 5597 5598 5598 5598 5597 5597 5597 5597 5597 5598 5598 5598 5597 5597 5596 5596 5596 5596 5596 5596 5596 5596 5596 5596 5596 5596 5596 5596 5597 5597 5597
5588 5588 5589 5589 5589 5588 5588 5588 5588 5587 5587 5587 5589 5589 5590 5590 5590 5590 5590 5590 5590 5589 5590 5589 5589 5589 5588 5587 5587 5586 5586 5586 5586 5586 5586 5586 5586 5586 5586 5586 5586 5586 5586 5586
5580 5581 5581 5581 5581 5580 5580 5581 5580 5579 5579 5579 5580 5581 5582 5581 5581 5582 5582 5582 5582 5581 5581 5581 5581 5580 5579 5578 5578 5577 5577 5576 5576 5576 5576 5576 5576 5576 5576 5576 5576 5576 5576 5576
5574 5574 5573 5573 5573 5571 5572 5575 5573 5572 5572 5572 5571 5574 5573 5573 5573 5573 5574 5574 5573 5573 5573 5572 5572 5571 5570 5569 5569 5568 5568 5567 5567 5567 5566 5566 5566 5566 5566 5566 5566 5566 5566 5566
5567 5566 5565 5565 5566 5564 5569 5566 5565 5565 5565 5564 5564 5565 5565 5565 5565 5565 5565 5565 5565 5565 5564 5563 5563 5562 5561 5560 5559 5559 5559 5558 5558 5557 5556 5556 5556 5556 5556 5556 5557 5557 5557 5556
5560 5560 5559 5559 5557 5558 5560 5559 5558 5557 5557 5558 5557 5557 5557 5557 5557 5557 5557 5556 5556 5556 5555 5554 5553 5553 5552 5551 5550 5550 5549 5549 5548 5547 5547 5546 5546 5546 5547 5547 5547 5547 5547 5547
5554 5553 5553 5552 5551 5551 5554 5552 5550 5550 5550 5551 5549 5549 5549 5549 5550 5551 5549 5547 5547 5546 5545 5545 5544 5543 5542 5541 5541 5540 5540 5539 5539 5538 5538 5537 5537 5537 5538 5538 5538 5538 5538 5538
5548 5547 5547 5546 5544 5544 5547 5545 5544 5545 5545 5544 5542 5542 5542 5542 5542 5542 5540 5539 5538 5537 5536 5535 5534 5533 5532 5531 5531 5530 5530 5529 5529 5529 5529 5529 5528 5528 5529 5529 5529 5529 5529 5529
5541 5541 5541 5540 5539 5541 5540 5538 5538 5538 5536 5536 5535 5535 5535 5535 5534 5533 5532 5530 5529 5528 5527 5526 5525 5524 5522 5521 5520 5520 5520 5520 5519 5519 5519 5520 5520 5520 5520 5520 5521 5521 5521 5521
5535 5536 5535 5535 5536 5534 5533 5532 5531 5530 5530 5529 5529 5528 5528 5527 5526 5525 5524 5522 5521 5519 5518 5517 5515 5514 5513 5512 5511 5510 5510 5510 5510 5510 5511 5511 5511 5512 5512 5512 5513 5513 5513 5514
5529 5529 5528 5528 5528 5528 5526 5525 5525 5524 5523 5523 5522 5521 5521 5520 5519 5518 5516 5514 5513 5511 5510 5509 5507 5506 5505 5503 5502 5501 5501 5501 5501 5502 5502 5503 5503 5504 5504 5505 5505 5506 5506 5506
5523 5522 5522 5522 5522 5521 5521 5520 5519 5517 5517 5516 5515 5514 5513 5512 5511 5510 5508 5507 5505 5504 5503 5501 5500 5499 5497 5496 5495 5494 5493 5493 5493 5494 5495 5495 5496 5496 5497 5497 5498 5499 5499 5499
5517 5516 5516 5516 5516 5515 5514 5513 5512 5511 5510 5509 5508 5508 5507 5505 5504 5503 5501 5500 5498 5497 5496 5494 5493 5491 5490 5489 5488 5487 5486 5485 5486 5487 5488 5488 5489 5490 5490 5491 5491 5491 5492 5492